St. Cloud, MN

3:08 PM CST on November 22, 2017 (GMT -0600)
Saint Cloud Regional

Weather History for KSTC - February, 2014

Change the Weather History Date:

Thursday, February 6, 2014

  Actual Average Record
Temperature  
Mean Temperature -5 °F 14 °F  
Max Temperature 4 °F 24 °F 50 °F (1987)
Min Temperature -15 °F 4 °F -33 °F (1982)
Degree Days  
Heating Degree Days 70 51  
Month to date heating degree days 391 309  
Since 1 July heating degree days 5941 5411  
Cooling Degree Days 0 0  
Month to date cooling degree days 0 0  
Year to date cooling degree days 0 0  
Moisture  
Dew Point -12 °F    
Average Humidity 69    
Maximum Humidity 79    
Minimum Humidity 59    
Precipitation  
Precipitation 0.00 in 0.02 in 0.21 in (1932)
Month to date precipitation T 0.10  
Year to date precipitation 1.34 0.75  
Snow  
Snow 0.00 in 0.20 in 2.80 in (1931)
Month to date snowfall 0.1 1.4  
Since 1 July snowfall 40.9 28.6  
Snow Depth 16.00 in    
Sea Level Pressure  
Sea Level Pressure 30.40 in    
Wind  
Wind Speed 9 mph (WSW)    
Max Wind Speed 21 mph    
Max Gust Speed 25 mph    
Visibility 10 miles    
Events      
T = Trace of Precipitation, MM = Missing Value Source: NWS Daily Summary

Daily Weather History Graph

Daily Weather History Graph

Search for Another Location

Airport or City:

Trip Planner

Search our weather history database for the weather conditions in past years. The results will help you decide how hot, cold, wet, or windy it might be!

Date:

Astronomy

Feb. 06, 2014 Rise Set
Actual Time 7:31 AM CST 5:30 PM CST
Civil Twilight 6:59 AM CST 6:01 PM CST
Nautical Twilight 6:24 AM CST 6:36 PM CST
Astronomical Twilight 5:50 AM CST 7:11 PM CST
Moon 11:01 AM CST (2/6) 12:47 AM CST (2/6)
Length of Visible Light 11h 01m
Length of Day
9h 59m
Waxing Crescent, 49% of the Moon is Illuminated
Feb 6
Waxing Crescent
Feb 6
First Quarter
Feb 14
Full
Feb 22
Last Quarter
Mar 1
New

Hourly Weather History & Observations

Time (CST) Temp. Windchill Dew Point Humidity Pressure Visibility Wind Dir Wind Speed Gust Speed Precip Events Conditions
12:53 AM -9.0 °F -22.3 °F -15.0 °F 75% 30.56 in 10.0 mi WNW 5.8 mph - N/A   Clear
1:53 AM -8.0 °F -22.5 °F -13.0 °F 79% 30.54 in 10.0 mi West 6.9 mph - N/A   Clear
2:53 AM -9.0 °F -22.3 °F -14.1 °F 79% 30.53 in 10.0 mi West 5.8 mph - N/A   Clear
3:53 AM -11.9 °F -23.8 °F -17.0 °F 78% 30.52 in 10.0 mi WSW 4.6 mph - N/A   Clear
4:53 AM -11.9 °F -23.8 °F -18.9 °F 71% 30.52 in 10.0 mi SW 4.6 mph - N/A   Clear
5:53 AM -15.0 °F -27.4 °F -20.9 °F 75% 30.50 in 10.0 mi SW 4.6 mph - N/A   Clear
6:53 AM -13.0 °F -30.0 °F -18.9 °F 75% 30.50 in 10.0 mi West 8.1 mph - N/A   Clear
7:53 AM -13.0 °F -25.1 °F -20.0 °F 71% 30.49 in 10.0 mi SW 4.6 mph - N/A   Clear
8:53 AM -11.0 °F -27.6 °F -17.0 °F 75% 30.48 in 10.0 mi WSW 8.1 mph - N/A   Clear
9:53 AM -5.1 °F -20.4 °F -13.0 °F 69% 30.47 in 10.0 mi WSW 8.1 mph - N/A   Clear
10:53 AM -2.0 °F -18.7 °F -11.9 °F 63% 30.46 in 10.0 mi West 10.4 mph - N/A   Clear
11:53 AM -0.0 °F -15.3 °F -11.0 °F 60% 30.43 in 10.0 mi WSW 9.2 mph - N/A   Clear
12:53 PM 1.0 °F -16.6 °F -9.0 °F 63% 30.41 in 10.0 mi WSW 12.7 mph - N/A   Clear
1:28 PM 1.4 °F -15.3 °F -9.4 °F 61% 30.27 in 10.0 mi WSW 11.5 mph 24.2 mph N/A   Mostly Cloudy
1:53 PM 3.0 °F -16.1 °F -8.0 °F 60% 30.38 in 10.0 mi West 16.1 mph - N/A   Mostly Cloudy
2:53 PM 3.0 °F -16.1 °F -8.0 °F 60% 30.36 in 10.0 mi WSW 16.1 mph - N/A   Overcast
3:53 PM 3.0 °F -14.8 °F -8.0 °F 60% 30.35 in 10.0 mi West 13.8 mph - N/A   Mostly Cloudy
4:53 PM 3.0 °F -13.3 °F -7.1 °F 63% 30.35 in 10.0 mi WSW 11.5 mph - N/A   Overcast
5:29 PM 3.2 °F -13.1 °F -5.8 °F 66% 30.22 in 9.0 mi West 11.5 mph - N/A   Overcast
5:53 PM 1.9 °F -14.7 °F -6.0 °F 69% 30.34 in 6.0 mi WSW 11.5 mph - N/A   Haze
6:53 PM 1.0 °F -12.9 °F -7.1 °F 69% 30.33 in 10.0 mi WSW 8.1 mph - N/A   Mostly Cloudy
7:53 PM -0.9 °F -14.1 °F -8.0 °F 72% 30.32 in 10.0 mi WSW 6.9 mph - N/A   Mostly Cloudy
8:53 PM -2.0 °F -13.9 °F -9.0 °F 72% 30.31 in 10.0 mi SW 5.8 mph - N/A   Clear
9:53 PM -2.9 °F -18.8 °F -9.0 °F 75% 30.30 in 10.0 mi WSW 9.2 mph - N/A   Clear
10:53 PM -2.0 °F -15.4 °F -9.0 °F 72% 30.28 in 10.0 mi SW 6.9 mph - N/A   Clear
11:53 PM -4.0 °F -16.3 °F -9.9 °F 76% 30.27 in 10.0 mi SW 5.8 mph - N/A   Clear